Fort Worth NAS, TX

9:29 AM CDT on September 22, 2017 (GMT -0500)
Fort Worth Naval Air Station Jrb

Weather History for KNFW - January, 2014

Change the Weather History Date:

Wednesday, January 1, 2014

  Actual Average Record
Temperature  
Mean Temperature 55 °F -  
Max Temperature 73 °F 56 °F 66 °F (2017)
Min Temperature 36 °F 37 °F 35 °F (2015)
Degree Days  
Heating Degree Days 10    
Growing Degree Days 5 (Base 50)    
Moisture  
Dew Point 32 °F    
Average Humidity 47    
Maximum Humidity 65    
Minimum Humidity 27    
Precipitation  
Precipitation 0.00 in - - ()
Sea Level Pressure  
Sea Level Pressure 30.03 in    
Wind  
Wind Speed 13 mph (SSW)    
Max Wind Speed 25 mph    
Max Gust Speed 33 mph    
Visibility 10 miles    
Events      
Averages and records for this station are not official NWS values.
T = Trace of Precipitation, MM = Missing Value Source: NWS Daily Summary

Daily Weather History Graph

Daily Weather History Graph

Search for Another Location

Airport or City:

Trip Planner

Search our weather history database for the weather conditions in past years. The results will help you decide how hot, cold, wet, or windy it might be!

Date:

Astronomy

Jan. 01, 2014 Rise Set
Actual Time 7:32 AM CST 5:34 PM CST
Civil Twilight 7:05 AM CST 6:01 PM CST
Nautical Twilight 6:34 AM CST 6:32 PM CST
Astronomical Twilight 6:04 AM CST 7:02 PM CST
Moon 7:27 AM CST (1/1) 6:16 PM CST (1/1)
Length of Visible Light 10h 56m
Length of Day
10h 02m
New Moon, 0% of the Moon is Illuminated
Jan 1
New Moon
Jan 7
First Quarter
Jan 15
Full
Jan 23
Last Quarter
Jan 30
New

Hourly Weather History & Observations

Time (CST) Temp. Windchill Dew Point Humidity Pressure Visibility Wind Dir Wind Speed Gust Speed Precip Events Conditions
12:52 AM 42.1 °F 37.1 °F 26.1 °F 53% 30.16 in 10.0 mi South 8.1 mph - N/A   Clear
1:52 AM 42.1 °F 37.1 °F 26.1 °F 53% 30.14 in 10.0 mi South 8.1 mph - N/A   Clear
2:52 AM 41.0 °F 34.7 °F 26.1 °F 55% 30.12 in 10.0 mi SSE 10.4 mph - N/A   Clear
3:52 AM 39.9 °F 33.4 °F 26.1 °F 58% 30.11 in 10.0 mi SSE 10.4 mph - N/A   Clear
4:52 AM 39.0 °F 32.8 °F 27.0 °F 62% 30.08 in 10.0 mi SSE 9.2 mph - N/A   Clear
5:52 AM 37.9 °F 31.5 °F 27.0 °F 65% 30.06 in 10.0 mi SSE 9.2 mph - N/A   Clear
6:52 AM 39.0 °F 34.0 °F 27.0 °F 62% 30.05 in 10.0 mi SSE 6.9 mph - N/A   Clear
7:52 AM 39.9 °F 34.5 °F 28.0 °F 63% 30.06 in 10.0 mi SSE 8.1 mph - N/A   Clear
8:52 AM 44.1 °F 38.1 °F 30.0 °F 58% 30.04 in 10.0 mi South 11.5 mph - N/A   Clear
9:52 AM 50.0 °F - 32.0 °F 50% 30.04 in 10.0 mi SSW 11.5 mph - N/A   Clear
10:52 AM 57.0 °F - 36.0 °F 45% 30.02 in 10.0 mi SSW 12.7 mph 21.9 mph N/A   Clear
11:52 AM 63.0 °F - 39.0 °F 41% 29.97 in 10.0 mi SSW 19.6 mph 26.5 mph N/A   Clear
12:52 PM 70.0 °F - 39.9 °F 33% 29.93 in 10.0 mi SSW 18.4 mph 24.2 mph N/A   Clear
1:52 PM 72.0 °F - 39.0 °F 30% 29.88 in 10.0 mi SSW 25.3 mph 32.2 mph N/A   Clear
2:52 PM 73.9 °F - 37.9 °F 27% 29.84 in 10.0 mi SSW 24.2 mph 33.4 mph N/A   Clear
3:52 PM 73.0 °F - 39.0 °F 29% 29.85 in 10.0 mi SSW 21.9 mph 29.9 mph N/A   Clear
4:52 PM 73.0 °F - 39.9 °F 30% 29.88 in 10.0 mi WSW 12.7 mph - N/A   Clear
5:52 PM 68.0 °F - 37.0 °F 32% 29.91 in 10.0 mi SW 9.2 mph - N/A   Clear
6:52 PM 60.1 °F - 37.9 °F 44% 29.95 in 10.0 mi NW 9.2 mph - N/A   Clear
7:52 PM 57.0 °F - 30.9 °F 37% 30.02 in 10.0 mi NW 24.2 mph 33.4 mph N/A   Clear
8:52 PM 51.1 °F - 32.0 °F 48% 30.08 in 10.0 mi NW 24.2 mph 31.1 mph N/A   Clear
9:52 PM 44.1 °F 36.2 °F 28.0 °F 53% 30.15 in 10.0 mi NNW 18.4 mph 31.1 mph N/A   Clear
10:52 PM 39.0 °F 28.0 °F 24.1 °F 55% 30.20 in 10.0 mi NW 25.3 mph 33.4 mph N/A   Clear
11:52 PM 36.0 °F 25.0 °F 21.0 °F 55% 30.24 in 9.0 mi NW 20.7 mph 27.6 mph N/A   Clear